Location: Boitzum
(52.1496°N, 9.6943°E)
Time: 14:07:31
(UTC+00:00)

Cosmos 2074 Rocket - Visible Passes

Search period start: 19 April 2026 00:00
Search period end: 29 April 2026 00:00
Orbit: 967 x 984 km, 82.9° (Epoch: 19 April)

Date Brightness Start Highest point End Pass type
(mag) Time Alt. Az. Time Alt. Az. Time Alt. Az.
19 Apr 5.7 19:12:21 10° SW 19:18:07 38° WNW 19:23:57 10° N visible
20 Apr 7.5 02:32:28 10° NNE 02:35:00 12° NE 02:37:32 10° ENE visible
20 Apr 6.6 19:39:00 10° WSW 19:44:01 25° WNW 19:49:05 10° N visible
21 Apr 7.0 02:56:49 10° NNE 03:01:14 19° ENE 03:05:37 10° ESE visible
21 Apr 7.1 20:06:23 10° W 20:10:07 16° NW 20:13:53 10° NNW visible
22 Apr 6.3 03:21:47 10° N 03:27:14 30° ENE 03:32:40 10° SE visible
22 Apr 7.6 20:35:50 10° NW 20:36:25 10° NW 20:37:01 10° NW visible
23 Apr 7.5 02:04:10 10° NNE 02:05:51 11° NE 02:07:32 10° ENE visible
23 Apr 6.5 19:09:42 10° WSW 19:14:57 28° WNW 19:20:16 10° N visible
24 Apr 7.0 02:28:04 10° NNE 02:32:07 17° NE 02:36:09 10° E visible
24 Apr 7.1 19:36:52 10° W 19:41:00 18° NW 19:45:11 10° NNW visible
25 Apr 6.5 02:52:56 10° N 02:58:11 26° ENE 03:03:24 10° ESE visible
25 Apr 7.6 20:05:14 10° WNW 20:07:16 11° NW 20:09:17 10° NNW visible
26 Apr 5.6 03:18:07 10° N 03:24:04 41° ENE 03:29:58 10° SE visible
27 Apr 7.0 01:59:23 10° NNE 02:03:00 15° NE 02:06:36 10° E visible
28 Apr 6.6 02:24:08 10° N 02:29:07 24° ENE 02:34:04 10° ESE visible
28 Apr 7.4 19:35:20 10° WNW 19:38:06 13° NW 19:40:53 10° NNW visible
